TEVEL-4 (51063 NORAD) Tracking and Keplerian Element Data

This shows tracking and keplerian element data for the satellite.

Feedback or suggestion? Click here.




ElementValue
Catalog51063
NameTEVEL-4
Epoch Orbit4716
Epoch Day325.26374103
Epoch Year2022
RAAN29.7093
Inclination97.4651
Eccentricity0.0008032
Argument of Perigee232.8193
Mean Anonmoly198.127
Mean Motion15.16819236
Decay Rate7.97E-05
L11 51063U 22002CH 22325.26374103 .00007970 00000+0 40836-3 0 9997
L22 51063 97.4651 29.7093 0008032 232.8193 198.1270 15.16819236 47168



Live tracking and technical data element details for TEVEL-4 (NORAD 51063). TEVEL-4 can be tracked NOW for your location showing map with azimuth and elevation plus other details from your city location.







IsCatalogInMostPopularTable: catalog: 51063, numindb: 53
Update: records affected: 1



GetName: 51063 TEVEL-4

Hit Count: updated at: Mon, 28 Nov 2022 04:56:37 GMT